Погода в Ивановской

Россия / Вологодская область     60°39′22″N   37°59′39″E
темп.,
°C
ветер,
м/с
пор.,
м/с
влажн.,
%
обл.,
%
осадки,
мм/ч
давл.,
гПа
погр.,
м
24 октября, вс
вс2400:000ссв3894100 0.4 1005559
03:00−1с4895100 1.1 1007575
06:00−1с41094100 1.2 1008802
09:00−1с4990100 1.9 1011668
12:00+1ссз4782100 0.1 1014856
15:00+1ссз477467 0.4 10161075
18:00−2сз39865 0.0 1019307
21:00−3сз279323 0.0 1021219
25 октября, пн
пн2500:00−4з269448 0.0 1022149
03:00−4зюз269368 0.0 1022190
06:00−4юз2787100 0.0 1022205
09:00−2ююз2883100 0.0 1021283
12:00−1ююз4887100 0.1 1019546
15:000ю41197100 2.6 1016624
18:000ююз41298100 3.1 1013675
21:00+2юз41398100 4.6 1011943
26 октября, вт
вт2600:00+4зюз51297100 0.9 10101001
03:00+4зюз51296100 1.4 1010922
06:00+3зюз41297100 0.6 1010697
09:00+3зюз41198100 0.6 1011521
12:00+3юз41098100 0.1 1011429
15:00+2юз31097100 0.3 1011399
18:00+2юз4997100 0.1 1011404
21:00+2юз3996100 0.1 1010388
27 октября, ср
ср2700:00+2юз3997100 0.1 1010356
03:00+2юз3996100 0.1 1008353
06:00+2ююз31097100 1.7 1007384
09:00+3юз41197100 3.4 1006509
12:00+4зюз41196100 0.4 1005609
15:00+5зюз41095100 0.4 1005681
18:00+4зюз3998100 0.8 10041004
21:00+5зсз499376 2.4 1005609
28 октября, чт
чт2800:00+5з41093100 0.2 1007893
03:00+4з41097100 0.7 1008821
06:00+4зсз4990100 0.2 1009802
09:00+3зсз2794100 0.5 1011643
12:00+2с2495100 0.1 1012362
15:00+2с3576100 0.2 1014848
18:00−1св378043 0.0 1017752
21:00−3св388781 0.0 1020606